Hourly Data Report for October 23, 2020

PILGER
SASKATCHEWAN
Current Station Operator: ECCC - MSC

52°25'00.000" N
105°09'00.000" W
552.00 m
4056121
71655
PUN

Download Data

Hourly Data (October 2020)
Hourly Data Report for October 23, 2020
TIME Temp Definition
°C
Dew Point Definition
°C
Rel Hum Definition
%
Wind Dir Definition
10's deg

Wind Spd Definition
km/h
Visibility Definition
km
Stn Press Definition
kPa
Hmdx Definition


Wind Chill Definition


Weather Definition


00:00 -6.5 -8.3 87 30 18   96.36   -13 LegendNANA
01:00 -6.5 -8.2 87 30 17   96.37   -13 LegendNANA
02:00 -6.4 -8.3 86 30 20   96.39   -13 LegendNANA
03:00 -6.5 -8.5 86 31 19   96.39   -13 LegendNANA
04:00 -6.5 -8.7 84 31 19   96.38   -13 LegendNANA
05:00 -6.7 -8.9 84 31 15   96.38   -13 LegendNANA
06:00 -6.7 -9.2 83 31 17   96.37   -13 LegendNANA
07:00 -6.9 -9.4 82 30 17   96.35   -13 LegendNANA
08:00 -6.9 -9.5 82 30 16   96.35   -13 LegendNANA
09:00 -6.7 -9.5 80 31 16   96.35   -13 LegendNANA
10:00 -6.3 -10.0 75 31 18   96.35   -13 LegendNANA
11:00 -6.1 -10.1 73 31 18   96.33   -13 LegendNANA
12:00 -5.8 -10.3 71 31 17   96.31   -12 LegendNANA
13:00 -5.8 -11.0 67 33 17   96.27   -12 LegendNANA
14:00 -6.0 -11.5 65 32 16   96.24   -12 LegendNANA
15:00 -6.0 -13.0 58 31 17   96.19   -12 LegendNANA
16:00 -6.1 -12.6 60 32 13   96.15   -11 LegendNANA
17:00 -6.3 -12.3 62 31 16   96.10   -12 LegendNANA
18:00 -6.7 -11.7 68 34 10   96.09   -11 LegendNANA
19:00 -6.9 -12.9 62 34 12   96.13   -12 LegendNANA
20:00 -7.2 -13.0 63 33 11   96.14   -12 LegendNANA
21:00 -7.4 -12.6 66 35 18   96.15   -14 LegendNANA
22:00 -7.7 -12.2 70 31 12   96.11   -13 LegendNANA
23:00 -7.8 -11.9 73 32 9   96.13   -12 LegendNANA

Notes on Data Quality.

Legend

  • E = Estimated
  • M = Missing
  • NA = Not Available*
  • [empty] = Indicates an unobserved value
Date modified: